This demonstration page uses our WeatherBlox Daily Observations layout. Learn more.

Hourly Observations for March 31, 2020

Temp ( °F °C ) Dew Point ( °F °C ) Humidity (%) Winds ( mph kmh ) Pressure ( in mb ) Visibility ( mi km ) Precip ( " mm )
12:15 am 00:15 Cloudy 47 8.1 45 7.2 94 94 E 6 9 30.08 1019 10 16.0934 0 0
12:35 am 00:35 Cloudy with Light Drizzle 47 8.2 45 7 92 92 E 5 7 30.08 1019 10 16.0934 0 0
12:55 am 00:55 Cloudy 46 7.8 44 6.6 92 92 SE 3 6 30.09 1019 10 16.0934 0 0
1:15 am 01:15 Cloudy 46 8 44 6.5 90 90 ESE 3 6 30.08 1019 10 16.0934 0 0
1:35 am 01:35 Cloudy with Light Drizzle 46 7.6 43 6.3 92 92 Calm 30.09 1019 10 16.0934 0 0
1:55 am 01:55 Cloudy 47 8.5 44 6.5 87 87 SSW 3 6 30.09 1019 10 16.0934 0 0
2:15 am 02:15 Cloudy 47 8.2 43 6.3 88 88 Calm 30.09 1019 10 16.0934 0 0
2:35 am 02:35 Cloudy 46 8 44 6.4 90 90 W 3 6 30.09 1019 10 16.0934 0 0
2:55 am 02:55 Cloudy 47 8.6 45 7.1 90 90 WSW 6 9 30.09 1019 10 16.0934 0 0
3:15 am 03:15 Cloudy 48 8.8 45 7.2 90 90 SW 5 7 30.07 1018 10 16.0934 0 0
3:35 am 03:35 Cloudy 47 8.5 45 7.1 91 91 SW 6 9 30.07 1018 10 16.0934 0 0
3:55 am 03:55 Cloudy 47 8.6 45 7.2 91 91 SW 8 13 30.07 1018 10 16.0934 0 0
4:15 am 04:15 Mostly Cloudy 46 7.5 44 6.5 93 93 SW 7 11 30.07 1018 10 16.0934 0 0
4:35 am 04:35 Mostly Cloudy 45 7 43 6.1 94 94 SW 6 9 30.07 1018 10 16.0934 0 0
4:55 am 04:55 Partly Cloudy 44 6.5 42 5.7 95 95 SSW 6 9 30.07 1018 10 16.0934 0 0
5:15 am 05:15 Clear 42 5.7 41 4.9 95 95 S 6 9 30.09 1019 10 16.0934 0 0
5:35 am 05:35 Mostly Cloudy 44 6.5 42 5.8 95 95 SSW 9 15 30.08 1019 10 16.0934 0 0
5:55 am 05:55 Mostly Cloudy 45 7 43 6.1 94 94 SSW 9 15 30.08 1019 10 16.0934 0 0
6:15 am 06:15 Mostly Cloudy 44 6.9 43 6 94 94 SW 8 13 30.08 1019 10 16.0934 0 0
6:35 am 06:35 Cloudy 45 7 43 6.1 94 94 SW 7 11 30.08 1019 10 16.0934 0 0
6:55 am 06:55 Cloudy 45 7.1 43 6.3 95 95 SW 8 13 30.07 1018 10 16.0934 0 0
7:15 am 07:15 Cloudy 45 7.1 43 6.3 95 95 SW 8 13 30.07 1018 10 16.0934 0 0
7:35 am 07:35 Cloudy 45 7 43 6.2 95 95 SW 9 15 30.07 1018 10 16.0934 0 0
7:55 am 07:55 Cloudy 44 6.8 43 6.1 95 95 SW 13 20 30.08 1019 7 11.26538 0 0
8:15 am 08:15 Cloudy with Mist and Fog 44 6.8 43 6.2 96 96 SSW 12 19 30.07 1018 5 8.0467 0 0
8:35 am 08:35 Cloudy 45 7 44 6.4 96 96 SSW 13 20 30.07 1018 10 16.0934 0 0
8:55 am 08:55 Cloudy 45 7.3 44 6.6 95 95 SW 10 17 30.07 1018 10 16.0934 0 0
9:15 am 09:15 Cloudy 46 7.6 44 6.7 94 94 SW 13 20 30.06 1018 10 16.0934 0 0
9:35 am 09:35 Cloudy 46 7.8 44 6.7 93 93 SW 10 17 30.07 1018 10 16.0934 0 0
9:55 am 09:55 Cloudy 47 8.2 45 7 92 92 SW 13 20 30.06 1018 10 16.0934 0 0
10:15 am 10:15 Cloudy 47 8.5 45 7.1 91 91 SW 15 24 30.06 1018 10 16.0934 0 0
10:35 am 10:35 Cloudy 48 9 45 7.3 89 89 SW 12 19 30.04 1017 10 16.0934 0 0
10:55 am 10:55 Cloudy 49 9.7 46 7.7 87 87 SSW 15 24 30.03 1017 10 16.0934 0 0
11:15 am 11:15 Cloudy 50 9.9 46 7.6 86 86 SW 10 17 30.02 1017 10 16.0934 0 0
11:35 am 11:35 Cloudy 51 10.7 47 8.2 85 85 SSW 16 26 30.02 1016 10 16.0934 0 0
11:55 am 11:55 Cloudy 53 11.5 47 8.2 80 80 SW 14 22 30.01 1016 10 16.0934 0 0
12:15 pm 12:15 Mostly Cloudy 55 12.7 48 8.8 77 77 SW 15 24 29.99 1016 10 16.0934 0 0
12:35 pm 12:35 Partly Cloudy 56 13.1 48 8.7 75 75 SW 13 20 29.98 1015 10 16.0934 0 0
12:55 pm 12:55 Partly Cloudy 57 14 48 8.9 72 72 SW 13 20 29.97 1015 10 16.0934 0 0
1:15 pm 13:15 Sunny 59 14.9 48 8.9 68 68 SW 14 22 29.94 1014 10 16.0934 0 0
1:35 pm 13:35 Sunny 60 15.5 48 8.7 64 64 SW 12 19 29.93 1013 10 16.0934 0 0
1:55 pm 13:55 Sunny 62 16.5 47 8.2 58 58 SSW 12 19 29.91 1013 10 16.0934 0 0
2:15 pm 14:15 Sunny 64 17.5 46 7.8 53 53 SSW 13 20 29.88 1012 10 16.0934 0 0
2:35 pm 14:35 Sunny 66 18.7 44 6.9 46 46 SW 12 19 29.86 1011 10 16.0934 0 0
2:55 pm 14:55 Sunny 66 19 42 5.3 41 41 SSW 14 22 29.85 1011 10 16.0934 0 0
3:15 pm 15:15 Sunny 67 19.6 42 5.4 40 40 SSW 13 20 29.83 1010 10 16.0934 0 0
3:35 pm 15:35 Sunny 68 20.1 40 4.3 35 35 SSW 8 13 29.82 1010 10 16.0934 0 0
3:55 pm 15:55 Sunny 69 20.7 38 3.6 33 33 SW 13 20 29.8 1009 10 16.0934 0 0
4:15 pm 16:15 Partly Cloudy 70 21.1 36 2.1 29 29 SW 12 19 29.79 1009 10 16.0934 0 0
4:35 pm 16:35 Partly Cloudy 69 20.6 37 2.6 31 31 SSW 10 17 29.78 1009 10 16.0934 0 0
4:55 pm 16:55 Sunny 69 20.8 34 1.1 27 27 SW 15 24 29.77 1008 10 16.0934 0 0
5:15 pm 17:15 Sunny 70 21 35 1.8 28 28 SSW 17 28 29.77 1008 10 16.0934 0 0
5:35 pm 17:35 Partly Cloudy 70 20.9 34 1.3 27 27 SW 13 20 29.77 1008 10 16.0934 0 0
5:55 pm 17:55 Sunny 70 21.1 33 0.8 26 26 SSW 15 24 29.77 1008 10 16.0934 0 0
6:15 pm 18:15 Sunny 70 21 34 1.1 27 27 SSW 15 24 29.76 1008 10 16.0934 0 0
6:35 pm 18:35 Sunny 69 20.7 34 1.2 27 27 SSW 17 28 29.76 1008 10 16.0934 0 0
6:55 pm 18:55 Sunny 69 20.3 36 2.1 30 30 SSW 13 20 29.77 1008 10 16.0934 0 0
7:15 pm 19:15 Sunny 67 19.7 35 1.7 30 30 S 13 20 29.76 1008 10 16.0934 0 0
7:35 pm 19:35 Sunny 65 18.5 35 1.6 32 32 S 9 15 29.77 1008 10 16.0934 0 0
7:55 pm 19:55 Sunny 64 17.5 35 1.5 34 34 S 9 15 29.78 1008 10 16.0934 0 0
8:15 pm 20:15 Clear 59 15.2 36 2.2 42 42 S 7 11 29.79 1009 10 16.0934 0 0
8:35 pm 20:35 Clear 57 14.1 37 2.5 46 46 S 6 9 29.8 1009 10 16.0934 0 0
8:55 pm 20:55 Partly Cloudy 56 13.1 37 2.6 49 49 S 7 11 29.82 1010 10 16.0934 0 0
9:15 pm 21:15 Mostly Cloudy 55 13 37 2.6 50 50 S 7 11 29.82 1010 10 16.0934 0 0
9:35 pm 21:35 Partly Cloudy 54 12.2 37 2.7 53 53 S 8 13 29.82 1010 10 16.0934 0 0
9:55 pm 21:55 Clear 54 12 37 2.6 53 53 S 9 15 29.83 1010 10 16.0934 0 0
10:15 pm 22:15 Partly Cloudy 53 11.5 37 2.7 55 55 S 8 13 29.83 1010 10 16.0934 0 0
10:35 pm 22:35 Clear 54 12 37 2.8 54 54 S 9 15 29.83 1010 10 16.0934 0 0
10:55 pm 22:55 Clear 53 11.9 37 3 55 55 S 12 19 29.83 1010 10 16.0934 0 0
11:15 pm 23:15 Clear 53 11.9 39 3.9 58 58 S 14 22 29.83 1010 10 16.0934 0 0
11:35 pm 23:35 Clear 55 12.7 40 4.5 58 58 SSW 15 24 29.82 1010 10 16.0934 0 0
11:55 pm 23:55 Clear 55 12.5 41 4.8 60 60 SSW 14 22 29.82 1010 10 16.0934 0 0

Powered by AerisWeather